ONEWEB-0094, 45450

Orbit data source: Space-Track

ONEWEB-0094, 45450 is a payload satellite owned by One Web (UK) in LEO that was launched on Sat, 21 Mar 2020 UTC via a SOYUZ-2-1B launch vehicle from the Tyuratam Missile And Space Complex (TTMTR). Payloads include a variety of satellites, spacecraft, and rockets equipped with specific instruments for various scientific and technological missions. These include communications satellites like Starlink; space stations such as the ISS; scientific satellites like the Hubble; Earth observation satellites from companies like Planet Labs, Umbra, and HawkEye 360; GPS; miniature CubeSats for education and research; and military/defense satellites.

Loading next visibility...
ONEWEB-0094 details
Identifier
45450, 2020-020AC
Orbit
LEO
Last TLE update17 hours ago
Origin
Flag of UKOne Web (UK)
ManufacturerOne Web
MissionOperational Commercial Communications
Bus & MotorARROW, Unknown motor
Mass148 kg wet, ~140 kg dry
Launch date (UTC)
2020-03-21 (5 years ago)
Launch vehicle
SOYUZ-2-1B
Launch site
Tyuratam Missile And Space Complex (TTMTR)
Object type
Payload
Rocket body
Debris
Shape & HBRTrap Box + 2 Pan, 5 m
Radar Cross Section2.957 m², Medium (>0.1 m² and < 1m²)

Expand to show TLE details & history

TLE from 17 hours ago
0 ONEWEB-0094
1 45450U 20020AC  24355.80609714  .00000024  00000-0  27539-4 0  9992
2 45450  87.9101 114.0908 0001635  99.6286 260.5030 13.17647918234758
Epoch: 2024-12-20T19:20Z
Definitive object data (Epoch: 2024-12-20T19:20:46.792Z)
Latitude-0.00007°
Longitude94.0295°
Altitude1,196.82 km
Speed7.255 km/s
True Right ascension07h 36m 21s
True Declination0° 00' 00"
Sunlit
Object was in full shadow at TLE epoch
Visualization TLE readout
Latitude51.80503°
Longitude96.53625°
Altitude1,201.275 km
Speed7.259 km/s
Apparent Right ascension03h 13m 40s
Apparent Declination25° 04' 17"
Sunlit
Object is in full shadow
Visualization observer readout
Local Sidereal Time11:02:19
Azimuth306.224° NW
Elevation-2.594°
Doppler factor1
Orbital elements
Apogee altitude1,192.064 km
Perigee altitude1,189.589 km
Semi-major axis7,568.963 km
Eccentricity0.0001635
Inclination87.9101°
RAAN114.0908°
Arg. of periapsis99.6286°
True anomaly260.48452°
Mean anomaly260.503°
Eccentric anomaly260.49376°
Mean motion3.29601 °/min
BSTAR0.000027539
Orbital period109.22 mins
Loading maneuver chart data...
Loading historical data...
Loading historical data...
Loading historical data...
Loading historical data...
Loading historical data...
Loading historical data...
Loading historical data...

ONEWEB-0094 Visibility forecast

Observer location: undefined°, undefined

Span
Click to sort rows by Start time (UTC) header in descending order
Start Az.
Max El. time (UTC)
Max El. Az.
Max El.
End time (UTC)
End Az.
12 mins2024-12-21 19:38:35.985Z13.468° NNE2024-12-21 19:44:35.985Z81.826° E36.404°2024-12-21 19:50:35.985Z153.697° SSE
10 mins2024-12-21 21:29:35.985Z328.086° NNW2024-12-21 21:33:35.985Z283.507° WNW26.61°2024-12-21 21:39:35.985Z225.22° WSW
12 mins2024-12-22 07:54:35.985Z151.497° SSE2024-12-22 07:59:35.985Z93.355° ESE37.415°2024-12-22 08:06:35.985Z11.787° NNE
11 mins2024-12-22 09:44:35.985Z229.897° WSW2024-12-22 09:49:35.985Z281.457° WNW25.399°2024-12-22 09:55:35.985Z338.497° N
|